Location: Ca�n Batista
(41.4099°N, 1.7752°E)
Time: 14:32:54
(UTC+00:00)

ATLAS CENTAUR R/B - Pass Details

Date: 03 March 2021
Orbit: 475 x 670 km, 64.7° (Epoch: 30 March)

Event Time Altitude Azimuth Distance (km) Brightness Sun altitude
Rises 18:16:41 0° 192° (SSW) 2,530 4.9 -6.5°
Reaches altitude 10° 18:18:55 10° 183° (S) 1,643 3.8 -7.0°
Maximum altitude 18:22:15 35° 117° (ESE) 786 1.7 -7.6°
Drops below altitude 10° 18:25:36 10° 50° (NE) 1,650 3.3 -8.2°
Enters shadow 18:27:02 - 44° (NE) 2,208 4.0 -8.5°
